TIME,DELAY(SENSOR),PRES,T(CTD),SAL,OXYGEN,RAWTEMP,T(OPTODE),TCPHASE,FLUOR,BETA(BETA700),BETA(BETA412),BETA(BETA440),CDOM,C(CSC),ED(ED412.40),ED(ED444.00),ED(ED489.70),ED(ED554.30),LU(LU411.80),LU(LU443.40),LU(LU489.60),LU(LU554.10),COMP,TILTX,TILTX(TILTY),CHECK
1367444756,5807,492.9400024414062500,7.0103001594543460,34.0932998657226560,95.5448913574218800,586.9982299804688000,7.0034751892089840,46.9650688171386700,51,104,85,79,78,14729,2147745133,2147426441,2148008475,2147873517,2147628004,2147077778,2148241718,2147198454,701,4,13,58942
1367444866,5812,482.1000061035156000,7.2880001068115230,34.0943984985351560,102.4990005493164000,578.0480957031250000,7.2911419868469240,46.0871086120605500,51,104,90,79,76,14730,2147744356,2147428224,2148006418,2147872685,2147625709,2147074102,2148231186,2147199405,2562,4,13,29445
1367444979,5806,470.6400146484375000,7.5506000518798830,34.0922012329101560,112.4085006713867200,568.9904785156250000,7.5815300941467285,44.9347381591796900,52,103,87,81,76,14732,2147742829,2147424438,2148007186,2147873426,2147623826,2147077604,2148234102,2147199003,1810,4,13,16201
1367445078,5807,460.2300109863281000,7.8035001754760740,34.0957984924316400,119.7117004394531200,562.7578125000000000,7.7809329032897950,44.1224899291992200,50,103,88,79,78,14731,2147743734,2147425490,2148004699,2147875181,2147622390,2147079789,2148232594,2147203940,1276,4,13,40186
1367445188,5809,448.6400146484375000,7.9850001335144040,34.0868988037109400,128.0608062744140600,557.2556152343750000,7.9566922187805180,43.2522392272949200,50,103,89,79,74,14732,2147744073,2147424521,2148006400,2147872420,2147622080,2147084205,2148233499,2147198829,228,4,13,26508
1367445306,5807,438.3599853515625000,8.1139001846313480,34.0780982971191400,141.6035003662109400,552.8734741210938000,8.0964851379394530,41.9861106872558600,50,102,88,80,75,14731,2147740342,2147426048,2148006518,2147874349,2147622317,2147081334,2148231341,2147200960,450,4,13,27578
1367445471,5808,428.4700012207031000,8.4093999862670900,34.0845985412597660,147.4505004882812500,543.7431030273438000,8.3872451782226560,41.3397216796875000,51,103,90,79,76,14731,2147740882,2147428406,2148003245,2147875785,2147620918,2147084105,2148230006,2147201353,2842,4,13,35320
1367445657,5812,416.8500061035156000,8.5897998809814450,34.0819015502929700,159.7106018066406200,537.2274780273438000,8.5943222045898440,40.2521095275878900,50,103,90,79,72,14730,2147739931,2147426669,2148006052,2147874852,2147622043,2147085440,2148230125,2147199213,1849,4,13,28668
1367445811,5811,405.5700073242187500,8.9968996047973630,34.0876007080078100,168.7599945068359400,525.0812988281250000,8.9794616699218750,39.3602485656738300,50,104,86,81,74,14727,2147740059,2147424329,2148004251,2147876891,2147619529,2147096045,2148231771,2147203392,435,3,13,58423
1367445935,5806,394.1099853515625000,9.2590999603271480,34.0910987854003900,180.8159027099609400,515.9688720703125000,9.2676610946655270,38.3478584289550800,49,105,90,79,71,14728,2147740480,2147426048,2148002048,2147874523,2147614985,2147094939,2148219510,2147202267,3073,4,14,51447
1367446034,5807,383.2600097656250000,9.6996002197265620,34.1069984436035160,200.0912017822265600,502.1326904296875000,9.7041034698486330,36.8547401428222660,49,102,85,79,71,14733,2147738230,2147424265,2148003446,2147873572,2147613449,2147097444,2148224411,2147202569,2813,3,13,14297
1367446144,5811,371.1199951171875000,9.9079999923706050,34.1128005981445300,204.9358978271484400,495.1677856445312500,9.9232864379882810,36.4417686462402340,50,103,87,81,71,14728,2147733961,2147426221,2148007030,2147871926,2147614564,2147096109,2148223067,2147208228,2164,3,13,58540
1367446262,5811,359.4200134277344000,10.2395000457763670,34.1226997375488300,202.1147003173828000,485.3734130859375000,10.2309598922729500,36.4477882385253900,49,104,87,80,70,14728,2147735908,2147425755,2148006080,2147872786,2147610916,2147105883,2148217947,2147203401,1313,3,13,44902
1367446394,5808,348.7999877929687500,10.6126003265380860,34.1301002502441400,206.3078002929687500,473.2308959960937500,10.6115102767944340,35.9925994873046900,49,103,86,79,69,14727,2147736630,2147426029,2148012434,2147874870,2147610011,2147105225,2148222025,2147201517,3475,4,13,51384
1367446540,5809,337.6300048828125000,10.9357995986938480,34.1459999084472660,207.5585021972656200,463.4190063476562500,10.9183397293090820,35.7564010620117200,49,105,85,79,70,14725,2147731867,2147431158,2148012882,2147875858,2147607899,2147111424,2148218624,2147202203,2463,4,13,31206
1367446694,5812,326.8099975585937500,11.2320995330810550,34.1517982482910160,210.9676055908203000,453.4334106445312500,11.2300100326538090,35.3942489624023440,49,105,87,81,70,14731,2147727314,2147427876,2148011940,2147873984,2147604214,2147109293,2148220470,2147204973,1460,3,14,23081
1367446869,5809,313.2600097656250000,11.6476001739501950,34.1671981811523440,210.8890075683593800,439.9158935546875000,11.6510095596313480,35.1809082031250000,48,102,86,79,69,14726,2147730395,2147429147,2148029833,2147871634,2147603190,2147113682,2148227318,2147206546,468,4,13,45209
1367446990,5806,301.9599914550781000,11.9939002990722660,34.1873016357421900,210.8406982421875000,429.4411926269531000,11.9765596389770500,35.0156402587890600,48,103,87,80,69,14723,2147730678,2147434029,2148032109,2147873819,2147601993,2147121170,2148228077,2147206555,3256,4,14,168
1367447114,5809,291.2799987792969000,12.2797002792358400,34.1920013427734400,211.3385009765625000,419.8529052734375000,12.2740697860717770,34.8349914550781250,48,105,88,79,67,14726,2147725476,2147442249,2148056932,2147872073,2147602715,2147120146,2148233782,2147207524,3326,4,14,6664
1367447257,5805,280.7600097656250000,12.7357997894287110,34.2122001647949200,210.5966033935547000,404.9808959960937500,12.7346296310424800,34.6440887451171900,48,103,89,81,68,14718,2147727195,2147447680,2148073334,2147872402,2147598866,2147131053,2148236864,2147211026,3220,3,15,10400
1367447444,5809,269.2399902343750000,13.5017995834350590,34.2709999084472660,211.9125976562500000,380.2249145507812500,13.4991102218627930,34.1861381530761700,49,104,87,79,67,14717,2147727104,2147458395,2148106788,2147872566,2147594541,2147144448,2148251620,2147211081,1540,3,14,4866
1367447578,5811,258.4599914550781000,14.1665000915527340,34.3399009704589840,216.1831054687500000,358.5751037597656000,14.1657104492187500,33.6183204650878900,49,103,88,79,67,14718,2147722267,2147475465,2148142637,2147872676,2147590893,2147154578,2148262509,2147208841,97,3,13,54110
1367447699,5809,247.6499938964843800,14.7262001037597660,34.3932991027832000,213.7518005371093800,340.8306884765625000,14.7108898162841800,33.4877891540527340,49,106,90,79,67,14714,2147727680,2147505600,2148208292,2147876644,2147589595,2147182976,2148294253,2147215250,2587,3,14,28051
1367447822,5805,236.7599945068359400,15.5205001831054690,34.4710006713867200,210.2234954833984400,313.9534912109375000,15.5349998474121100,33.2893295288085940,49,105,85,80,67,14717,2147732425,2147548050,2148296338,2147873088,2147592182,2147206966,2148332480,2147216841,1465,2,13,35505
1367447954,5810,225.8999938964843800,16.1821002960205080,34.5555000305175800,210.7418060302734400,290.2354125976562500,16.2609195709228500,32.9155616760253900,47,105,85,78,67,14713,2147740589,2147607030,2148407186,2147874889,2147590875,2147241700,2148387949,2147228297,3210,3,13,22214
1367448100,5809,214.9199981689453000,17.0403995513916000,34.6677017211914060,211.8114013671875000,264.9353027343750000,17.0342998504638670,32.4940414428710940,49,106,90,80,65,14713,2147763712,2147691629,2148563547,2147873033,2147594185,2147301622,2148462208,2147232429,2997,3,15,31037
1367448276,5810,204.1000061035156200,17.7765998840332030,34.7835998535156250,219.0048065185547000,240.3939971923828000,17.7839202880859380,31.7607498168945300,50,107,87,81,64,14706,2147789458,2147764928,2148679908,2147875785,2147603456,2147359186,2148521133,2147233069,1436,3,14,16214
1367448384,5808,198.0800018310547000,18.1112995147705080,34.8274993896484400,221.1853027343750000,229.9039001464843800,18.1042709350585940,31.5014305114746100,50,107,88,82,64,14702,2147834121,2147903378,2148934628,2147878134,2147620342,2147451510,2148648137,2147245467,1128,2,15,25264
1367448461,5812,194.1499938964843800,18.4043998718261720,34.8602981567382800,220.5352020263672000,220.3585968017578000,18.3957691192626950,31.4040794372558600,52,107,89,82,64,14701,2147854966,2147944832,2148990290,2147873746,2147630180,2147482934,2148688137,2147246025,648,3,14,14452
1367448527,5807,190.6600036621093800,18.6877994537353500,34.9006996154785160,220.8921966552734400,211.4017028808593800,18.6693096160888670,31.2631301879882800,54,107,90,81,65,14699,2147886893,2148036589,2149153014,2147876342,2147642907,2147539940,2148762788,2147256758,916,2,15,35287
1367448604,5810,186.5099945068359400,18.9489002227783200,34.9347991943359400,221.1504058837890600,202.9557952880859400,18.9272899627685550,31.1347599029541000,57,110,88,80,63,14695,2147885284,2147992000,2149043593,2147872630,2147643913,2147517988,2148707693,2147251309,1218,3,15,26146
1367448684,5811,182.1499938964843800,19.1193008422851560,34.9594001770019500,221.3354034423828000,197.1838989257812500,19.1036090850830080,31.0471000671386720,60,110,90,81,64,14691,2147990994,2148261376,2149523565,2147876214,2147685083,2147678884,2148948498,2147268077,1043,2,15,61365
1367448750,5810,178.6100006103515600,19.2268009185791000,34.9748001098632800,221.3300933837890600,193.2548980712890600,19.2236595153808600,30.9941902160644530,60,113,88,81,65,14685,2148036288,2148363309,2149697810,2147878866,2147708781,2147755501,2149039369,2147275200,1092,2,15,39468
1367448827,5808,174.8800048828125000,19.5718002319335940,35.0111999511718750,220.9192047119140600,182.7888031005859400,19.5435009002685550,30.8744697570800780,65,116,89,82,64,14681,2148098944,2148471515,2149866450,2147878089,2147737014,2147820672,2149126345,2147285979,1175,2,15,63827
1367448937,5806,171.1000061035156200,19.8194007873535160,35.0489006042480500,221.1161041259765600,174.3072967529297000,19.8027896881103500,30.7508602142334000,69,113,87,82,63,14677,2148174381,2148602989,2150068589,2147879643,2147770139,2147902528,2149218596,2147288795,757,2,15,47953
1367449137,5807,167.5500030517578000,20.2077999114990230,35.0983009338378900,221.0195007324218800,161.8164062500000000,20.1848392486572270,30.5892391204834000,79,118,92,83,62,14668,2148237193,2148655323,2150118043,2147881956,2147798454,2147929481,2149231579,2147292004,2849,2,15,13313
1367449377,5802,162.9700012207031200,20.6604995727539060,35.1595001220703100,222.1430053710937500,146.5841979980468800,20.6511096954345700,30.3302097320556640,89,117,89,82,62,14660,2148388480,2148853933,2150397915,2147885275,2147863872,2148028032,2149330057,2147299766,1118,2,16,60125
1367449487,5806,158.8399963378906200,20.8516998291015620,35.1851005554199200,222.8997955322265600,140.0540008544922000,20.8511600494384770,30.2061500549316400,89,119,88,82,61,14651,2148439542,2148868827,2150368987,2147884452,2147893412,2148033773,2149296841,2147300763,1029,2,16,46943
1367449597,5807,154.9199981689453000,21.1254005432128900,35.2173004150390600,224.4588012695312500,131.4665985107422000,21.1143703460693360,30.0155296325683600,98,121,91,82,62,14644,2148545344,2148997659,2150529252,2147884242,2147938898,2148099126,2149363446,2147301129,574,2,15,12396
1367449697,5807,150.6499938964843800,21.2273006439209000,35.2295989990234400,225.8457946777343800,128.1114959716797000,21.2172508239746100,29.9029903411865230,96,123,88,83,60,14634,2148808320,2149392914,2151125275,2147889828,2148066880,2148320969,2149625152,2147324388,247,2,15,55154
1367449774,5808,146.7299957275390600,21.4400005340576170,35.2574005126953100,227.1833953857422000,121.1073989868164000,21.4321403503417970,29.7461795806884770,102,119,89,83,61,14635,2149462464,2150460068,2152809161,2147902354,2148376987,2148911835,2150384000,2147383606,2944,2,16,38959
1367449862,5808,142.9400024414062500,21.6886997222900400,35.2935981750488300,229.7673034667968800,113.7397994995117200,21.6583194732666000,29.5254402160644530,105,125,86,82,58,14630,2149761755,2150852452,2153347446,2147912795,2148539785,2149134253,2150618560,2147402505,2247,2,15,34045
1367449975,5806,139.3099975585937500,21.9741001129150400,35.3314018249511700,232.2353973388672000,103.8917007446289000,21.9608993530273440,29.2807197570800780,119,120,88,83,60,14621,2149916891,2150979867,2153437732,2147914505,2148630930,2149189522,2150610770,2147408082,1907,2,15,64830
1367450140,5808,135.4499969482422000,22.1168994903564450,35.3347015380859400,235.5962066650390600,99.0663833618164000,22.1092700958251950,29.0610198974609380,127,120,91,83,60,14608,2151273289,2152996681,2156385069,2147943460,2149311716,2150232228,2151869897,2147505188,3423,2,16,4720
1367450318,5809,130.6799926757812500,22.2985000610351560,35.3647003173828100,238.2400970458984400,92.9405136108398400,22.2977504730224600,28.8608608245849600,126,120,86,83,58,14598,2152610212,2154897965,2158912356,2147973156,2150001846,2151113974,2152807844,2147589686,2880,2,16,36227
1367450417,5810,126.5199966430664000,22.4169006347656250,35.3745994567871100,239.9772949218750000,89.4923400878906200,22.4038906097412100,28.7380199432373050,118,119,87,82,59,14596,2153297627,2155753252,2159752777,2147989668,2150460717,2151634715,2153272128,2147636132,2318,2,16,33339
1367450505,5807,122.5400009155273400,22.5076999664306640,35.3839988708496100,241.7843933105468800,86.0386734008789000,22.5102500915527340,28.6125507354736330,107,118,90,83,58,14605,2155021732,2158258541,2163039204,2148042102,2151447990,2152996397,2154753828,2147763693,2420,1,16,7536
1367450585,5808,118.7699966430664000,22.5904998779296880,35.3913993835449200,243.2377014160156200,83.2475585937500000,22.5962390899658200,28.5121994018554700,95,119,89,84,58,14597,2156503716,2160366756,2165634203,2148088960,2152425883,2154300187,2156080813,2147882706,2271,2,16,55807
1367450673,5807,114.6600036621093800,22.7439994812011720,35.4006004333496100,243.9037017822265600,78.7641830444336000,22.7344207763671880,28.4260902404785160,93,120,90,84,59,14589,2157726966,2161993462,2167396123,2148139218,2153306084,2155423323,2157131968,2147965842,1531,1,16,57162
1367450761,5807,110.6500015258789000,22.7521991729736330,35.4006996154785160,244.3585968017578000,78.2294692993164000,22.7509098052978500,28.3992805480957030,93,118,89,82,57,14590,2154803757,2157246674,2160242066,2148044278,2151977216,2153226797,2154432896,2147742189,597,2,15,23111
1367450849,5803,106.2900009155273400,22.7544002532959000,35.3992996215820300,244.6614990234375000,78.2516937255859400,22.7502307891845700,28.3862495422363280,95,120,90,84,57,14576,2163222656,2169436150,2175965467,2148366747,2156913069,2160159926,2161756800,2148367113,428,2,15,31989
1367450928,5807,102.4300003051757800,22.7460002899169920,35.3889007568359400,244.1347045898437500,78.4163284301757800,22.7451496124267580,28.4117298126220700,96,120,91,83,58,14571,2165881782,2172870738,2179525613,2148492662,2158582299,2162278884,2163670939,2148550601,538,2,16,29880
1367451016,5809,98.4499969482421900,22.8577003479003900,35.3996009826660160,243.7021942138672000,75.4206466674804700,22.8375301361084000,28.3933696746826170,81,121,91,84,59,14567,2169236525,2177151094,2183817865,2148656493,2160671753,2164903387,2165933814,2148766464,822,2,16,43127
1367451071,5808,96.1800003051757800,22.8845996856689450,35.4086990356445300,245.6049957275390600,74.1042709350586000,22.8781299591064450,28.2926292419433600,77,125,90,85,58,14584,2171930578,2180766491,2187776704,2148816868,2162641846,2167405485,2168145947,2148970130,921,2,16,26427
1367451126,5806,93.9800033569336000,22.8852005004882800,35.4080009460449200,246.7227020263672000,73.9190826416015600,22.8838405609130860,28.2411708831787100,75,128,92,85,60,14582,2175077970,2185054089,2192506029,2149009837,2165117312,2170493577,2170808850,2149204379,1122,2,16,21795
1367451181,5808,91.8300018310546900,22.9118003845214840,35.4075012207031250,246.8307952880859400,73.0308074951171900,22.9112491607666000,28.2254600524902340,73,127,92,86,57,14581,2173065097,2181813558,2187972818,2148934692,2164420361,2169329956,2169251657,2149062500,943,1,15,1
1367451238,5808,89.6299972534179700,22.9379005432128900,35.4076004028320300,247.2333984375000000,72.1714477539062500,22.9377593994140620,28.1969509124755860,72,128,90,86,57,14574,2176219410,2185888219,2192130889,2149142016,2167157229,2172754139,2172191259,2149316196,590,1,16,48299
1367451293,5807,87.5400009155273400,22.9594993591308600,35.4062004089355500,247.5372009277343800,71.5476303100586000,22.9570102691650400,28.1760597229003900,72,127,90,86,58,14571,2178153106,2188082870,2193973083,2149316269,2169042587,2174917714,2173817115,2149472402,344,1,16,13525
1367451348,5807,85.4000015258789000,22.9554004669189450,35.3997993469238300,247.0415954589843800,71.5275726318359400,22.9576301574707030,28.1974601745605470,73,125,93,85,58,14568,2185229339,2197743835,2204969974,2149809984,2173967030,2181352649,2179628562,2150003931,249,1,16,10958
1367451403,5808,83.2399978637695300,22.9361991882324220,35.3862991333007800,246.3287963867187500,72.1420364379882800,22.9386692047119140,28.2362594604492200,72,124,90,85,58,14561,2174213083,2181603410,2184845494,2149120009,2166936420,2171566491,2169787693,2149124562,38,2,15,14206
1367451458,5806,81.0400009155273400,22.8775005340576170,35.3469009399414060,243.5503997802734400,73.9269638061523400,22.8836002349853500,28.3813209533691400,71,119,92,84,59,14564,2193069696,2206846016,2213538852,2150467172,2178377078,2186832173,2183947629,2150469046,3371,1,16,28257
1367451513,5806,78.7200012207031200,22.9412994384765620,35.3518981933593750,241.0325012207031200,72.3968582153320300,22.9308109283447270,28.4749698638916000,66,121,89,83,61,14586,2199810916,2214277933,2220462326,2150938294,2181975259,2191618157,2187999158,2150896758,3489,2,16,28003
1367451591,5804,74.9499969482421900,23.0750999450683600,35.3693008422851560,242.2837066650390600,67.9748535156250000,23.0672893524169920,28.3633499145507800,62,121,90,84,59,14583,2208240969,2223329307,2228964406,2151855689,2187915721,2198810541,2193600868,2151549257,360,1,16,42814
1367451646,5810,71.7200012207031200,23.1641006469726560,35.3742980957031250,243.0921936035156200,65.1339874267578100,23.1550102233886720,28.2918395996093750,61,124,91,85,57,14578,2217331108,2233456393,2239085824,2152983122,2194373110,2206339355,2199278948,2152234541,698,2,16,37065
1367451701,5807,68.3799972534179700,23.2432003021240230,35.3806991577148440,244.1387939453125000,62.2938003540039060,23.2427501678466800,28.2099208831787100,60,123,91,84,57,14573,2223589869,2239569408,2244419858,2153904384,2200979675,2213710930,2204637942,2152845211,653,1,16,46630
1367451756,5809,64.9899978637695300,23.2733993530273440,35.3833007812500000,245.8240051269531200,61.3379592895507800,23.2722892761230470,28.1237297058105470,61,125,95,85,59,14567,2234685869,2252122825,2257230198,2155643510,2210441828,2224222409,2212410944,2153791186,352,2,16,32132
1367451811,5806,61.5000000000000000,23.2598991394042970,35.3641014099121100,245.1069946289062500,61.5733108520507800,23.2650108337402340,28.1583099365234380,57,123,90,84,58,14575,2247539785,2265629586,2270049545,2157850313,2221356754,2236217115,2221309421,2154951085,3270,1,16,45379
1367451866,5808,58.0900001525878900,23.3455009460449220,35.3709983825683600,244.1246032714843800,58.9724998474121100,23.3453903198242200,28.1692790985107420,59,123,90,85,57,14573,2266641216,2287342683,2292681243,2161429046,2235719478,2252446829,2233636324,2156616731,2845,1,16,51480
1367451923,5811,54.6699981689453100,23.4188995361328120,35.3855018615722660,244.9273071289062500,56.6201286315918000,23.4181194305419920,28.1044597625732420,57,124,93,86,57,14553,2237888192,2250504822,2251836827,2158515428,2217720749,2228252032,2211938285,2154454217,2334,1,16,41663
1367451978,5805,51.5499992370605500,23.4596004486084000,35.3767013549804700,245.5529937744140600,54.9373016357421900,23.4701595306396500,28.0561790466308600,58,126,90,86,56,14551,2288126875,2310025005,2315877677,2168258770,2258928502,2276796306,2250954724,2159545746,1997,1,16,58916
1367452033,5804,48.7099990844726560,23.4911003112792970,35.3704986572265600,245.4824981689453000,54.1698989868164060,23.4939002990722660,28.0496597290039060,56,123,95,86,58,14560,2266542189,2279946212,2279983332,2164816795,2247359744,2259715017,2234351698,2157521737,1831,1,16,23037
1367452088,5807,46.0800018310546900,23.6014003753662100,35.3823013305664060,245.0652008056640600,49.9980812072753900,23.6229896545410160,28.0161800384521500,55,123,93,84,59,14564,2304438866,2323791707,2328584082,2174750290,2277059291,2294441170,2262462656,2161977865,1040,1,16,45001
1367452143,5806,43.9199981689453100,23.7014007568359380,35.3838005065918000,245.6784973144531200,47.2452316284179700,23.7082099914550780,27.9552497863769530,54,122,92,85,57,14564,2325063158,2346410669,2351866139,2180306477,2299002029,2318275501,2280633289,2164410304,232,1,16,44273
1367452198,5811,42.0400009155273440,23.8178997039794920,35.3839988708496100,245.5402069091797000,43.8444709777832000,23.8135395050048830,27.9191398620605470,54,119,93,86,56,14565,2328307565,2348132534,2352435446,2183177499,2306818066,2324802916,2283832667,2165265398,3414,2,16,19907
1367452266,5810,40.0499992370605500,23.8798999786376950,35.3852005004882800,245.4671020507812500,41.3450584411621100,23.8909893035888670,27.8914394378662100,53,120,90,85,54,14566,2339181613,2358858944,2363430692,2188133604,2315710500,2332202715,2287854765,2166077842,3370,2,16,31673
1367452332,5808,38.4099998474121100,23.9137992858886720,35.3819999694824200,245.2295989990234400,40.1769905090332000,23.9272003173828120,27.8874301910400400,53,117,92,83,55,14564,2350452132,2369851638,2375023378,2193352868,2330274048,2346927844,2297888603,2168307638,391,1,16,27588
1367452387,5809,37.1899986267089840,23.9263992309570300,35.3757019042968750,244.4862060546875000,39.5910301208496100,23.9453601837158200,27.9129009246826170,53,117,91,84,56,14576,2360557851,2379227008,2383638720,2196422528,2338548900,2354680850,2302695460,2169460781,594,2,16,30041
1367452475,5808,35.5499992370605500,23.9339008331298830,35.3656005859375000,243.1307067871093800,39.2148513793945300,23.9570293426513670,27.9678993225097660,52,118,92,82,61,14586,2379835044,2398529472,2403545298,2205260187,2360041097,2376530925,2318046774,2172397211,130,2,16,22076
1367452530,5805,34.5699996948242200,23.9328994750976560,35.3591995239257800,242.4165039062500000,39.1502418518066400,23.9590301513671880,27.9986591339111330,52,116,92,82,54,14591,2389752493,2410935625,2418606372,2211612425,2361615990,2377958436,2318559378,2172877366,3543,2,16,61742
1367452608,5809,32.5099983215332000,24.0496006011962900,35.3465003967285160,240.2747039794922000,35.9865913391113300,24.0571403503417970,28.0549907684326170,51,119,90,85,60,14588,2345483739,2354613933,2353779264,2199346834,2322810715,2330173476,2279326153,2167766372,3217,1,16,64788
1367452663,5807,30.5200004577636720,24.1009998321533200,35.3502006530761700,240.3899993896484400,34.4496116638183600,24.1048202514648440,28.0306205749511720,52,118,90,85,60,14588,2350056685,2357259081,2356286866,2203878692,2335254226,2341823104,2286263936,2169007680,3143,2,16,1097
1367452718,5808,28.3899993896484380,24.1357994079589840,35.3518981933593750,240.6071014404297000,32.8771286010742200,24.1536197662353500,28.0013999938964840,51,118,91,84,54,14587,2436869988,2451013147,2454677577,2239878784,2425042377,2438765696,2358774838,2182993673,2812,1,17,55925
1367452773,5810,26.1399993896484380,24.2332000732421880,35.3494987487793000,240.6683044433593800,29.8733005523681640,24.2468605041503900,27.9616603851318360,50,118,89,83,56,14586,2463623817,2478482432,2484241289,2260686573,2449285632,2460900269,2373290221,2188810157,2424,2,17,18881